KLCK

Rickenbacker International Airport

Airport
ICAO code
KLCK
Summary
ICAO Region
NAM
ICAO Territory
Location

Columbus, Ohio,

Coordinates
39° 48' 60" N , 82° 55' 57" W
KCC
Airport LOS
Parallel Runway Operation
Airport WX
Cumulonimbus
Metar
KLCK 191055Z AUTO 24014G17KT 10SM OVC017 17/15 A2989 RMK AO2 T01680145

Description

Rickenbacker International Airport is a joint civil-military (ANG) public use airport located 16 km south of the central business district of Columbus, in Franklin County, Ohio.

Climatology

Transition between humid “subtropical” climate (Köppen climate classification Cfa) and humid "continental" climate (Köppen climate classification Dfa) - characterized by hot, muggy summers and cold, dry winters. Precipitation reaches its lowest in January and February and peaks in summer and latter half of spring. Winter snowfall is associated with large storms that the westerlies steer from west to east. Most summer rainfall occurs during thunderstorms.

Runways

Designator Length Width Surface Rops
6/24 989 18 ASP Yes/Yes
05L/23R 3638 46 ASP Yes/Yes
05R/23L 3689 61 PEM Yes/Yes

Airport map

Aerial View

SKYbrary Partners:

Safety knowledge contributed by: